Zurück zum Katalog

COSMOS 1275 DEB

AktivPO
NORAD 12723·DEBRIS·🇷🇺 Russia

Gestartet Jun 4, 1981 von Plesetsk Cosmodrome

Loading…

Nächste Überflüge (nächste 24 Stunden)

TLE

AktuellSource: Space-Track

Epoche: Sep 14, 2026, 08:01 UTC

1 12723U 81053BQ  26257.33466772  .00010254  00000-0  12668-2 0  9999
2 12723  82.9330 117.9289 0001213  21.5841 338.5426 14.82727640324974

Verfolge COSMOS 1275 DEB in Echtzeit mit AllMySat

Download on the App Store